Weather History for Iliamna, AK

Change the Weather History Date:

Wednesday, January 29, 2014

  Actual Average Record
Temperature  
Mean Temperature 39 °F -  
Max Temperature 41 °F 23 °F 44 °F (1977)
Min Temperature 37 °F 10 °F -41 °F (1989)
Degree Days  
Heating Degree Days 26    
Moisture  
Dew Point 34 °F    
Average Humidity 80    
Maximum Humidity 86    
Minimum Humidity 64    
Precipitation  
Precipitation 0.00 in - - ()
Sea Level Pressure  
Sea Level Pressure 29.95 in    
Wind  
Wind Speed 16 mph (East)    
Max Wind Speed 21 mph    
Max Gust Speed 30 mph    
Visibility 10 miles    
Events      
Averages and records for this station are not official NWS values.
T = Trace of Precipitation, MM = Missing Value Source: NWS Daily Summary

Daily Weather History Graph

Daily Weather History Graph

Search for Another Location

Airport:

Trip Planner

Search our weather history database for the weather conditions in past years. The results will help you decide how hot, cold, wet, or windy it might be!

Date:

Astronomy

Jan. 29, 2014 Rise Set
Actual Time 9:38 AM AKST 5:28 PM AKST
Civil Twilight 8:50 AM AKST 6:15 PM AKST
Nautical Twilight 7:59 AM AKST 7:06 PM AKST
Astronomical Twilight 7:11 AM AKST 7:55 PM AKST
Moon 8:24 AM AKST (1/29) 4:44 PM AKST (1/29)
Length of Visible Light 9h 25m
Length of Day
7h 50m
Waning Crescent, 2% of the Moon is Illuminated
Jan 29
Waning Crescent
Jan 30
New
Feb 6
First Quarter
Feb 14
Full
Feb 22
Last Quarter

Hourly Weather History & Observations

Time (AKST) Temp. Windchill Dew Point Humidity Pressure Visibility Wind Dir Wind Speed Gust Speed Precip Events Conditions
12:53 AM 39.0 °F 30.3 °F 34.0 °F 82% 29.86 in 10.0 mi ENE 16.1 mph 24.2 mph N/A   Mostly Cloudy
1:53 AM 41.0 °F 32.2 °F 33.1 °F 73% 29.85 in 10.0 mi East 18.4 mph 28.8 mph N/A   Partly Cloudy
2:53 AM 41.0 °F 31.6 °F 33.1 °F 73% 29.85 in 10.0 mi East 20.7 mph 29.9 mph N/A   Clear
3:53 AM 39.9 °F 31.1 °F 33.1 °F 77% 29.86 in 10.0 mi East 17.3 mph 27.6 mph N/A   Clear
4:53 AM 41.0 °F 32.2 °F 33.1 °F 73% 29.86 in 10.0 mi East 18.4 mph 27.6 mph N/A   Clear
5:53 AM 39.9 °F 30.2 °F 33.1 °F 77% 29.87 in 10.0 mi East 20.7 mph 29.9 mph N/A   Clear
6:53 AM 39.0 °F 31.0 °F 34.0 °F 82% 29.88 in 10.0 mi East 13.8 mph - N/A   Overcast
7:53 AM 39.0 °F 30.6 °F 34.0 °F 82% 29.87 in 10.0 mi East 15.0 mph 24.2 mph N/A   Clear
8:53 AM 39.0 °F 31.4 °F 35.1 °F 86% 29.90 in 10.0 mi East 12.7 mph 21.9 mph N/A   Overcast
9:53 AM 39.0 °F 30.3 °F 35.1 °F 86% 29.91 in 10.0 mi East 16.1 mph 25.3 mph N/A   Mostly Cloudy
10:53 AM 39.9 °F 31.4 °F 35.1 °F 83% 29.93 in 10.0 mi East 16.1 mph 23.0 mph N/A   Mostly Cloudy
11:53 AM 39.9 °F 32.9 °F 35.1 °F 83% 29.95 in 10.0 mi East 11.5 mph 19.6 mph N/A   Overcast
12:53 PM 41.0 °F 33.9 °F 35.1 °F 79% 29.96 in 10.0 mi East 12.7 mph - N/A   Overcast
1:53 PM 41.0 °F 33.5 °F 35.1 °F 79% 29.96 in 10.0 mi East 13.8 mph - N/A   Overcast
2:53 PM 39.9 °F 32.1 °F 35.1 °F 83% 29.96 in 10.0 mi East 13.8 mph - N/A   Mostly Cloudy
3:53 PM 39.9 °F 32.5 °F 35.1 °F 83% 29.98 in 10.0 mi East 12.7 mph - N/A   Mostly Cloudy
4:53 PM 39.0 °F 31.4 °F 35.1 °F 86% 29.99 in 10.0 mi East 12.7 mph - N/A   Mostly Cloudy
5:53 PM 39.0 °F 30.6 °F 35.1 °F 86% 30.00 in 10.0 mi East 15.0 mph - N/A   Scattered Clouds
6:53 PM 39.0 °F 31.8 °F 35.1 °F 86% 30.02 in 10.0 mi East 11.5 mph - N/A   Mostly Cloudy
7:53 PM 39.0 °F 32.3 °F 34.0 °F 82% 30.04 in 10.0 mi East 10.4 mph - N/A   Mostly Cloudy
8:53 PM 39.0 °F 31.0 °F 34.0 °F 82% 30.04 in 10.0 mi East 13.8 mph - N/A   Mostly Cloudy
9:53 PM 39.0 °F 32.3 °F 34.0 °F 82% 30.05 in 10.0 mi ESE 10.4 mph - N/A   Mostly Cloudy
10:53 PM 39.0 °F 32.3 °F 34.0 °F 82% 30.06 in 10.0 mi East 10.4 mph - N/A   Overcast
11:53 PM 39.9 °F 32.9 °F 34.0 °F 79% 30.09 in 10.0 mi East 11.5 mph - N/A   Mostly Cloudy